Location: Aldenham
(51.6667°N, 0.3500°W)
Time: 16:27:28
(UTC+00:00)

Cosmos 1869 - Pass Details

Date: 18 November 2025
Orbit: 453 x 480 km, 82.5° (Epoch: 12 December)

Event Time Altitude Azimuth Distance (km) Brightness Sun altitude
Rises 16:42:52 0° 154° (SSE) 2,486 6.7 -5.7°
Reaches altitude 10° 16:45:18 10° 138° (SE) 1,611 5.5 -6.1°
Maximum altitude 16:47:57 20° 89° (E) 1,116 4.3 -6.4°
Drops below altitude 10° 16:50:35 10° 40° (NE) 1,611 5.2 -6.8°
Enters shadow 16:52:15 - 27° (NNE) 2,195 5.9 -7.1°
